Home   Weather   Leknes   Past weeks
Flag for Norway

Past Weather in Leknes, Norway — Yesterday and Last 2 Weeks

Now
67 °F

Mild.


Feels Like: 67 °F
Forecast: 61 / 53 °F
Wind: 7 mph from East

Location: Skrova Fyr

Current Time: Jul 22, 2019 at 3:57:47 am

Latest Report: Jul 22, 2019 at 2:00 am


Visibility: N/A

Pressure: 29.81 "Hg

Humidity: 61%

Dew Point: 53 °F

Location of LeknesLocation

Past Weather in Leknes — Graph

°F

Leknes Temperature Yesterday

Maximum temperature yesterday: 70 °F (at 10:00 pm)
Minimum temperature yesterday: 57 °F (at 12:00 am)
Average temperature yesterday: 66 °F

High & Low Weather Summary for the Past Weeks

 TemperatureHumidityPressure
High73 °F (Jul 19, 6:00 pm)97% (Jul 10, 4:00 am)30.06 "Hg (Jul 10, 4:00 am)
Low50 °F (Jul 7, 2:00 am)29% (Jul 8, 7:00 pm)29.67 "Hg (Jul 7, 2:00 am)
Average58 °F70%29.93 "Hg
* Reported Jul 7 2:00 am — Jul 22 2:00 am, Leknes. Weather by CustomWeather, © 2019

Note: Actual official high and low records may vary slightly from our data, if they occured in-between our weather recording intervals... More about our weather records

Advertising

Leknes Weather History for the Previous 24 Hours

Scroll right to see more
 ConditionsComfort  
Time TempWeatherWind HumidityBarometerVisibility
2:00 am
Mon, Jul 22
67 °FMild.7 mph61%29.81 "HgN/A
1:00 am70 °FMild.9 mph57%29.80 "HgN/A
12:00 am70 °FMild.9 mph57%29.80 "HgN/A
11:00 pm
Sun, Jul 21
70 °FMild.9 mph56%29.80 "HgN/A
10:00 pm70 °FMild.8 mph57%29.81 "HgN/A
9:00 pm70 °FMild.8 mph57%29.81 "HgN/A
8:00 pm70 °FMild.6 mph58%29.82 "HgN/A
7:00 pm69 °FMild.6 mph61%29.83 "HgN/A
6:00 pm67 °FMild.6 mph68%29.84 "HgN/A
5:00 pm68 °FMild.3 mph64%29.85 "HgN/A
4:00 pm66 °FMild.3 mph67%29.85 "HgN/A
2:00 pm67 °FMild.1 mph66%29.86 "HgN/A
1:00 pm69 °FMild.5 mph56%29.85 "HgN/A
12:00 pm70 °FMild.6 mph53%29.84 "HgN/A
11:00 am70 °FMild.8 mph53%29.83 "HgN/A
10:00 am69 °FMild.7 mph54%29.83 "HgN/A
9:00 am67 °FMild.8 mph56%29.83 "HgN/A
8:00 am67 °FMild.8 mph57%29.83 "HgN/A
7:00 am67 °FMild.10 mph58%29.84 "HgN/A
6:00 am65 °FMild.7 mph64%29.85 "HgN/A
5:00 am63 °FMild.7 mph70%29.85 "HgN/A
4:00 am62 °FMild.6 mph71%29.86 "HgN/A
3:00 am63 °FMild.5 mph70%29.88 "HgN/A
Weather by CustomWeather, © 2019

See weather overview